EW0199 Weather Reports


Display with metric or nautical units.
time (UTC)temp
F
wind
direction
speed
MPH
gust
MPH
rain 1hr
in
rain 24hr
in
rain mn
in
humidity
%
barometer
mb
20260510214349 53 13 4.0 10.0 0.00 0.00 0.00 39 1017.4
20260510213918 54 65 0.0 8.0 0.00 0.00 0.00 38 1017.3
20260510213345 55 315 5.0 8.0 0.00 0.00 0.00 36 1017.2
20260510212913 55 328 3.0 7.0 0.00 0.00 0.00 38 1017.2
20260510212438 54 121 3.0 7.0 0.00 0.00 0.00 39 1017.0
20260510211841 53 336 2.0 7.0 0.00 0.00 0.00 38 1017.1
20260510210843 54 311 5.0 12.0 0.00 0.00 0.00 37 1017.0
20260510205830 54 351 4.0 11.0 0.00 0.00 0.00 38 1016.9
20260510205358 53 331 5.0 13.0 0.00 0.00 0.00 38 1017.0
20260510204906 54 309 7.0 13.0 0.00 0.00 0.00 38 1016.9
20260510204408 54 345 4.0 10.0 0.00 0.00 0.00 37 1016.9
20260510203825 54 275 4.0 8.0 0.00 0.00 0.00 37 1016.8
20260510203349 54 305 3.0 9.0 0.00 0.00 0.00 36 1016.9
20260510202848 54 305 4.0 11.0 0.00 0.00 0.00 37 1016.9
20260510201843 54 303 1.0 9.0 0.00 0.00 0.00 37 1016.8
20260510201352 54 68 4.0 10.0 0.00 0.00 0.00 37 1016.9
20260510200849 54 20 3.0 10.0 0.00 0.00 0.00 37 1016.9
20260510200355 55 108 2.0 11.0 0.00 0.00 0.00 37 1016.9
20260510195921 54 351 4.0 11.0 0.00 0.00 0.00 38 1016.8
20260510195325 54 337 3.0 13.0 0.00 0.00 0.00 38 1016.8
20260510194852 54 326 6.0 11.0 0.00 0.00 0.00 36 1016.9
20260510194404 55 3 4.0 8.0 0.00 0.00 0.00 38 1016.8
20260510193323 54 333 3.0 8.0 0.00 0.00 0.00 39 1016.9
20260510192842 54 16 3.0 11.0 0.00 0.00 0.00 38 1016.8
20260510192405 53 314 3.0 12.0 0.00 0.00 0.00 41 1016.8
20260510191326 52 52 4.0 11.0 0.00 0.00 0.00 39 1016.8
20260510190853 52 321 3.0 5.0 0.00 0.00 0.00 39 1016.7
20260510190416 53 333 3.0 7.0 0.00 0.00 0.00 38 1016.6
20260510185829 53 331 3.0 9.0 0.00 0.00 0.00 38 1016.5
20260510185354 53 347 4.0 9.0 0.00 0.00 0.00 38 1016.6
20260510184921 54 339 4.0 9.0 0.00 0.00 0.00 39 1016.6
20260510184337 53 337 5.0 9.0 0.00 0.00 0.00 38 1016.4
20260510183908 53 285 4.0 8.0 0.00 0.00 0.00 38 1016.4
20260510183326 52 343 4.0 7.0 0.00 0.00 0.00 40 1016.3
20260510182845 52 313 1.0 8.0 0.00 0.00 0.00 40 1016.3
20260510182413 52 327 1.0 11.0 0.00 0.00 0.00 40 1016.2
20260510181900 53 354 6.0 11.0 0.00 0.00 0.00 39 1016.2
20260510181420 53 84 4.0 11.0 0.00 0.00 0.00 38 1016.1
20260510180835 53 309 5.0 11.0 0.00 0.00 0.00 37 1016.0
20260510175824 52 296 7.0 13.0 0.00 0.00 0.00 37 1015.9
20260510175345 52 295 3.0 12.0 0.00 0.00 0.00 38 1015.9
20260510174902 52 306 6.0 12.0 0.00 0.00 0.00 38 1015.9
20260510174426 52 310 5.0 16.0 0.00 0.00 0.00 38 1015.9
20260510173831 52 274 7.0 17.0 0.00 0.00 0.00 39 1015.9
20260510173350 52 305 9.0 17.0 0.00 0.00 0.00 38 1015.9
20260510172912 52 319 5.0 9.0 0.00 0.00 0.00 40 1015.8
20260510172415 52 9 4.0 11.0 0.00 0.00 0.00 40 1015.8
20260510171832 52 282 6.0 11.0 0.00 0.00 0.00 39 1015.8
20260510171358 52 314 5.0 11.0 0.00 0.00 0.00 38 1015.7
20260510170917 52 296 4.0 15.0 0.00 0.00 0.00 39 1015.7
20260510170322 52 284 9.0 15.0 0.00 0.00 0.00 38 1015.8
20260510165839 52 316 8.0 13.0 0.00 0.00 0.00 39 1015.8
20260510165408 52 285 3.0 14.0 0.00 0.00 0.00 39 1015.7
20260510164833 52 310 6.0 14.0 0.00 0.00 0.00 38 1015.8
20260510164342 52 319 6.0 15.0 0.00 0.00 0.00 38 1015.8
20260510163903 52 296 6.0 15.0 0.00 0.00 0.00 39 1015.8
20260510163411 51 302 9.0 14.0 0.00 0.00 0.00 40 1015.7
20260510162937 51 329 5.0 14.0 0.00 0.00 0.00 42 1015.7
20260510162439 51 271 6.0 17.0 0.00 0.00 0.00 42 1015.8
20260510161823 51 255 7.0 16.0 0.00 0.00 0.00 40 1015.5
20260510161332 51 292 7.0 16.0 0.00 0.00 0.00 41 1015.5
20260510160839 51 342 5.0 15.0 0.00 0.00 0.00 43 1015.5
20260510160359 51 295 7.0 16.0 0.00 0.00 0.00 42 1015.6
20260510155907 51 310 9.0 18.0 0.00 0.00 0.00 40 1015.4
20260510155409 52 293 6.0 18.0 0.00 0.00 0.00 41 1015.2
20260510154917 50 312 6.0 16.0 0.00 0.00 0.00 44 1015.3
20260510154343 51 309 8.0 14.0 0.00 0.00 0.00 41 1015.4
20260510153905 51 314 7.0 13.0 0.00 0.00 0.00 44 1015.3
20260510153327 50 360 7.0 13.0 0.00 0.00 0.00 44 1015.2
20260510152846 50 331 6.0 12.0 0.00 0.00 0.00 48 1015.3
20260510152414 50 305 4.0 10.0 0.00 0.00 0.00 48 1015.3
20260510151836 50 274 4.0 10.0 0.00 0.00 0.00 50 1015.2
20260510151403 49 320 5.0 14.0 0.00 0.00 0.00 49 1015.3
20260510150925 50 316 7.0 14.0 0.00 0.00 0.00 49 1015.2
20260510150334 49 285 3.0 13.0 0.00 0.00 0.00 51 1015.2
20260510145845 49 316 6.0 13.0 0.00 0.00 0.00 51 1015.2
20260510145329 49 278 7.0 15.0 0.00 0.00 0.00 51 1015.1
20260510144834 49 302 8.0 15.0 0.00 0.00 0.00 51 1015.1
20260510144353 49 320 9.0 15.0 0.00 0.00 0.00 52 1015.2
20260510143915 49 18 6.0 11.0 0.00 0.00 0.00 51 1015.1
20260510143321 48 260 4.0 10.0 0.00 0.00 0.00 53 1015.1
20260510142847 48 278 5.0 10.0 0.00 0.00 0.00 53 1015.1
20260510141844 47 293 4.0 9.0 0.00 0.00 0.00 53 1015.2
20260510141350 46 245 3.0 9.0 0.00 0.00 0.00 54 1015.2
20260510140913 46 254 5.0 9.0 0.00 0.00 0.00 54 1015.3
20260510140329 46 282 2.0 7.0 0.00 0.00 0.00 56 1015.3
20260510135836 45 320 4.0 7.0 0.00 0.00 0.00 58 1015.3
20260510135343 44 303 1.0 8.0 0.00 0.00 0.00 59 1015.3
20260510134907 44 288 2.0 8.0 0.00 0.00 0.00 59 1015.2
20260510134324 43 314 1.0 6.0 0.00 0.00 0.00 61 1015.3
20260510133848 43 296 1.0 6.0 0.00 0.00 0.00 62 1015.3
20260510133357 42 285 1.0 6.0 0.00 0.00 0.00 64 1015.2
20260510132901 42 312 2.0 5.0 0.00 0.00 0.00 65 1015.2
20260510132424 41 282 1.0 3.0 0.00 0.00 0.00 66 1015.2
20260510131824 40 319 1.0 3.0 0.00 0.00 0.00 66 1015.2
20260510131355 40 293 1.0 4.0 0.00 0.00 0.00 68 1015.2
20260510130920 39 303 1.0 4.0 0.00 0.00 0.00 67 1015.2
20260510130335 39 295 1.0 2.0 0.00 0.00 0.00 69 1015.1
20260510125857 38 283 0.0 2.0 0.00 0.00 0.00 70 1015.1
20260510125347 38 298 0.0 2.0 0.00 0.00 0.00 70 1015.0
20260510124916 38 302 0.0 2.0 0.00 0.00 0.00 72 1014.9
20260510124400 37 288 0.0 1.0 0.00 0.00 0.00 73 1014.9
20260510123921 37 282 0.0 1.0 0.00 0.00 0.00 74 1014.9
20260510123419 37 290 0.0 1.0 0.00 0.00 0.00 75 1014.9
20260510122921 36 290 0.0 2.0 0.00 0.00 0.00 75 1014.9
20260510122344 35 287 0.0 1.0 0.00 0.00 0.00 77 1014.9
20260510121329 34 283 0.0 1.0 0.00 0.00 0.00 82 1014.9
20260510120843 33 321 0.0 0.0 0.00 0.00 0.00 83 1014.8
20260510120350 33 321 0.0 0.0 0.00 0.00 0.00 85 1014.8
20260510115847 32 321 0.0 0.0 0.00 0.00 0.00 88 1014.8
20260510115349 31 321 0.0 0.0 0.00 0.00 0.00 89 1014.7
20260510114918 31 321 0.0 0.0 0.00 0.00 0.00 88 1014.6
20260510114403 30 321 0.0 0.0 0.00 0.00 0.00 90 1014.5
20260510113825 29 321 0.0 0.0 0.00 0.00 0.00 92 1014.5
20260510113348 28 321 0.0 0.0 0.00 0.00 0.00 92 1014.6
20260510112911 28 321 0.0 0.0 0.00 0.00 0.00 92 1014.4
20260510112329 27 321 0.0 0.0 0.00 0.00 0.00 92 1014.4
20260510111857 26 321 0.0 0.0 0.00 0.00 0.00 92 1014.3
20260510111420 26 322 0.0 0.0 0.00 0.00 0.00 92 1014.3
20260510110842 26 323 0.0 0.0 0.00 0.00 0.00 91 1014.2
20260510110410 26 321 0.0 0.0 0.00 0.00 0.00 91 1014.2
20260510105938 26 321 0.0 0.0 0.00 0.00 0.00 91 1014.2
20260510105439 26 323 0.0 0.0 0.00 0.00 0.00 91 1014.1
20260510104836 26 323 0.0 0.0 0.00 0.00 0.00 91 1014.1
20260510104405 26 321 0.0 0.0 0.00 0.00 0.00 91 1013.9
20260510103823 26 321 0.0 0.0 0.00 0.00 0.00 91 1014.0
20260510103343 26 321 0.0 0.0 0.00 0.00 0.00 90 1014.0
20260510102908 27 321 0.0 0.0 0.00 0.00 0.00 91 1014.0
20260510102328 27 322 0.0 0.0 0.00 0.00 0.00 92 1013.9
20260510101857 26 321 0.0 0.0 0.00 0.00 0.00 92 1013.9
20260510101348 26 321 0.0 0.0 0.00 0.00 0.00 91 1013.9
20260510100916 26 321 0.0 0.0 0.00 0.00 0.00 91 1013.9
20260510100339 26 323 0.0 0.0 0.00 0.00 0.00 91 1013.9
20260510095907 27 321 0.0 0.0 0.00 0.00 0.00 90 1013.8
20260510095327 27 321 0.0 0.0 0.00 0.00 0.00 89 1013.6
20260510094851 27 321 0.0 0.0 0.00 0.00 0.00 88 1013.5
20260510094421 27 321 0.0 0.0 0.00 0.00 0.00 88 1013.5
20260510093827 27 321 0.0 0.0 0.00 0.00 0.00 88 1013.4
20260510093336 27 321 0.0 0.0 0.00 0.00 0.00 88 1013.4
20260510092858 27 321 0.0 0.0 0.00 0.00 0.00 86 1013.3
20260510092418 28 321 0.0 0.0 0.00 0.00 0.00 86 1013.3
20260510091839 28 321 0.0 0.0 0.00 0.00 0.00 85 1013.2
20260510091345 28 321 0.0 0.0 0.00 0.00 0.00 85 1013.2
20260510090853 29 321 0.0 0.0 0.00 0.00 0.00 84 1013.1
20260510090339 29 321 0.0 0.0 0.00 0.00 0.00 85 1013.2
20260510085900 29 321 0.0 0.0 0.00 0.00 0.00 85 1013.2
20260510085419 29 323 0.0 0.0 0.00 0.00 0.00 87 1013.2
20260510084842 28 321 0.0 0.0 0.00 0.00 0.00 87 1013.1
20260510084406 28 321 0.0 1.0 0.00 0.00 0.00 89 1013.1
20260510083854 28 321 0.0 1.0 0.00 0.00 0.00 89 1013.0
20260510083412 28 322 0.0 0.0 0.00 0.00 0.00 90 1012.9
20260510082837 28 323 0.0 0.0 0.00 0.00 0.00 90 1012.8
20260510082408 28 322 0.0 0.0 0.00 0.00 0.00 90 1012.8
20260510081908 28 322 0.0 0.0 0.00 0.00 0.00 89 1012.8
20260510081332 28 323 0.0 0.0 0.00 0.00 0.00 88 1012.7
20260510080859 28 323 0.0 0.0 0.00 0.00 0.00 88 1012.7
20260510080422 28 323 0.0 0.0 0.00 0.00 0.00 89 1012.6
20260510075828 28 322 0.0 0.0 0.00 0.00 0.00 88 1012.6
20260510075356 29 322 0.0 0.0 0.00 0.00 0.00 88 1012.6
20260510074906 29 322 0.0 0.0 0.00 0.00 0.00 88 1012.5
20260510074412 29 322 0.0 0.0 0.00 0.00 0.00 87 1012.5
20260510073918 29 323 0.0 0.0 0.00 0.00 0.00 87 1012.4
20260510073404 30 322 0.0 0.0 0.00 0.00 0.00 85 1012.4
20260510072915 30 321 0.0 0.0 0.00 0.00 0.00 86 1012.4
20260510072414 29 322 0.0 0.0 0.00 0.00 0.00 87 1012.3
20260510071905 29 323 0.0 0.0 0.00 0.00 0.00 88 1012.3
20260510071323 29 321 0.0 0.0 0.00 0.00 0.00 88 1012.2
20260510070829 29 322 0.0 0.0 0.00 0.00 0.00 88 1012.2
20260510070352 29 323 0.0 0.0 0.00 0.00 0.00 87 1012.1
20260510065830 29 321 0.0 0.0 0.00 0.00 0.00 87 1012.1
20260510065336 29 323 0.0 0.0 0.00 0.00 0.00 88 1012.1
20260510064822 29 323 0.0 0.0 0.00 0.00 0.00 89 1012.1
20260510064329 29 321 0.0 0.0 0.00 0.00 0.00 88 1012.1
20260510063834 29 322 0.0 0.0 0.00 0.00 0.00 88 1012.0
20260510063340 29 323 0.0 0.0 0.00 0.00 0.00 88 1012.0
20260510062827 29 323 0.0 0.0 0.00 0.00 0.00 89 1012.0
20260510062333 29 321 0.0 0.0 0.00 0.00 0.00 88 1012.0
20260510061840 29 321 0.0 0.0 0.00 0.00 0.00 88 1011.9
20260510061325 29 322 0.0 0.0 0.00 0.00 0.00 87 1011.9
20260510060851 29 321 0.0 0.0 0.00 0.00 0.00 87 1011.9
20260510060336 29 323 0.0 0.0 0.00 0.00 0.00 87 1011.9
20260510055846 29 321 0.0 0.0 0.00 0.00 0.00 87 1011.8
20260510055329 29 321 0.0 0.0 0.00 0.00 0.00 86 1011.8
20260510054856 29 321 0.0 0.0 0.00 0.00 0.00 86 1011.8
20260510054401 29 321 0.0 0.0 0.00 0.00 0.00 86 1011.7
20260510053847 30 321 0.0 0.0 0.00 0.00 0.00 86 1011.6
20260510053330 30 321 0.0 0.0 0.00 0.00 0.00 84 1011.6
20260510052838 30 321 0.0 0.0 0.00 0.00 0.00 84 1011.5
20260510052324 30 323 0.0 0.0 0.00 0.00 0.00 84 1011.6
20260510051850 30 321 0.0 0.0 0.00 0.00 0.00 84 1011.4
20260510051336 30 323 0.0 0.0 0.00 0.00 0.00 84 1011.5
20260510050822 31 323 0.0 0.0 0.00 0.00 0.00 83 1011.5
20260510050329 31 322 0.0 0.0 0.00 0.00 0.00 81 1011.5
20260510045907 31 321 0.0 0.0 0.00 0.00 0.00 81 1011.4
20260510045434 31 322 0.0 0.0 0.00 0.00 0.00 81 1011.3
20260510044835 31 321 0.0 0.0 0.00 0.00 0.00 81 1011.3
20260510044346 31 321 0.0 0.0 0.00 0.00 0.00 80 1011.3
20260510043345 32 321 0.0 0.0 0.00 0.00 0.00 79 1011.2
20260510042909 32 321 0.0 0.0 0.00 0.00 0.00 76 1011.2
20260510042327 33 321 0.0 0.0 0.00 0.00 0.00 75 1011.0
20260510041855 33 321 0.0 0.0 0.00 0.00 0.00 74 1011.0
20260510041413 33 321 0.0 0.0 0.00 0.00 0.00 75 1010.9
20260510040916 33 321 0.0 0.0 0.00 0.00 0.00 73 1011.0
20260510040333 33 321 0.0 0.0 0.00 0.00 0.00 75 1010.9
20260510035859 34 321 0.0 0.0 0.00 0.00 0.00 74 1010.9
20260510035400 34 321 0.0 0.0 0.00 0.00 0.00 72 1010.9
20260510034822 34 321 0.0 0.0 0.00 0.00 0.00 68 1011.0
20260510034351 34 321 0.0 0.0 0.00 0.00 0.00 68 1010.9
20260510033920 35 321 0.0 0.0 0.00 0.00 0.00 68 1010.9
20260510033344 35 321 0.0 0.0 0.00 0.00 0.00 66 1010.9
20260510032852 35 321 0.0 0.0 0.00 0.00 0.00 69 1010.9
20260510031843 36 321 0.0 0.0 0.00 0.00 0.00 63 1010.8
20260510030941 37 321 0.0 0.0 0.00 0.00 0.00 63 1010.7
20260510030340 37 321 0.0 0.0 0.00 0.00 0.00 61 1010.6
20260510025841 38 321 0.0 0.0 0.00 0.00 0.00 63 1010.6
20260510024836 39 321 0.0 0.0 0.00 0.00 0.00 62 1010.3
20260510024358 39 321 0.0 0.0 0.00 0.00 0.00 61 1010.3
20260510023825 40 321 0.0 0.0 0.00 0.00 0.00 60 1010.3
20260510023335 40 321 0.0 0.0 0.00 0.00 0.00 54 1010.2
20260510022855 40 321 0.0 0.0 0.00 0.00 0.00 53 1010.2
20260510022403 41 321 0.0 0.0 0.00 0.00 0.00 50 1010.1
20260510021823 42 321 0.0 0.0 0.00 0.00 0.00 48 1010.1
20260510021326 43 321 0.0 0.0 0.00 0.00 0.00 48 1010.0
20260510020851 43 321 0.0 0.0 0.00 0.00 0.00 47 1009.9
20260510020411 44 321 0.0 0.0 0.00 0.00 0.00 44 1009.9
20260510015917 45 321 0.0 0.0 0.00 0.00 0.00 43 1009.8
20260510015324 46 321 0.0 2.0 0.00 0.00 0.00 43 1009.7
20260510014845 46 321 0.0 5.0 0.00 0.00 0.00 42 1009.6
20260510013844 47 352 3.0 6.0 0.00 0.00 0.00 40 1009.5
20260510013416 47 298 2.0 7.0 0.00 0.00 0.00 40 1009.3
20260510012833 47 289 2.0 7.0 0.00 0.00 0.00 40 1009.2
20260510012356 47 312 1.0 7.0 0.00 0.00 0.00 39 1009.2
20260510011917 47 265 2.0 7.0 0.00 0.00 0.00 39 1009.1
20260510011332 48 340 3.0 17.0 0.00 0.00 0.00 38 1009.0
20260510010855 48 324 5.0 17.0 0.00 0.00 0.00 38 1009.0
20260510010418 48 317 4.0 7.0 0.00 0.00 0.00 38 1008.8
20260510005830 48 313 3.0 9.0 0.00 0.00 0.00 38 1008.7
20260510005335 49 304 4.0 9.0 0.00 0.00 0.00 37 1008.6
20260510004844 49 326 4.0 9.0 0.00 0.00 0.00 37 1008.6
20260510004330 50 335 5.0 9.0 0.00 0.00 0.00 36 1008.4
20260510003840 50 317 4.0 12.0 0.00 0.00 0.00 37 1008.3
20260510003350 51 318 4.0 12.0 0.00 0.00 0.00 37 1008.2
20260510002901 51 352 4.0 13.0 0.00 0.00 0.00 38 1008.1
20260510002416 51 286 6.0 13.0 0.00 0.00 0.00 38 1008.0
20260510001842 52 275 5.0 13.0 0.00 0.00 0.00 39 1007.8
20260510001407 52 354 5.0 12.0 0.00 0.00 0.00 38 1007.8
20260510000910 52 324 5.0 12.0 0.00 0.00 0.00 38 1007.7
20260510000329 53 359 5.0 13.0 0.00 0.00 0.00 39 1007.6
20260509235836 53 302 6.0 13.0 0.00 0.00 0.00 38 1007.3
20260509235346 54 23 5.0 15.0 0.00 0.00 0.00 38 1007.1
20260509234908 54 321 7.0 15.0 0.00 0.00 0.00 37 1006.9
20260509234414 54 11 7.0 11.0 0.00 0.00 0.00 36 1006.7
20260509233922 54 317 5.0 14.0 0.00 0.00 0.00 36 1006.7
20260509233339 54 347 6.0 16.0 0.00 0.00 0.00 36 1006.5
20260509232846 55 320 4.0 15.0 0.00 0.00 0.00 36 1006.4
20260509232353 54 305 6.0 15.0 0.00 0.00 0.00 36 1006.3
20260509231856 55 308 8.0 16.0 0.00 0.00 0.00 35 1006.1
20260509231401 56 319 5.0 16.0 0.00 0.00 0.00 34 1006.0
20260509230930 56 300 5.0 16.0 0.00 0.00 0.00 34 1005.9
20260509230326 56 283 3.0 12.0 0.00 0.00 0.00 34 1005.7
20260509225849 56 323 6.0 12.0 0.00 0.00 0.00 33 1005.6
20260509225404 56 338 5.0 10.0 0.00 0.00 0.00 32 1005.4
20260509224907 57 347 5.0 11.0 0.00 0.00 0.00 33 1005.4
20260509224406 57 32 6.0 12.0 0.00 0.00 0.00 32 1005.3
20260509223901 57 328 5.0 12.0 0.00 0.00 0.00 32 1005.3
20260509223420 57 305 4.0 10.0 0.00 0.00 0.00 31 1005.1
20260509222827 57 357 3.0 13.0 0.00 0.00 0.00 31 1005.0
20260509222351 57 286 6.0 14.0 0.00 0.00 0.00 32 1005.0
20260509221917 57 331 3.0 14.0 0.00 0.00 0.00 31 1004.7
20260509221337 57 14 5.0 12.0 0.00 0.00 0.00 31 1004.8
20260509220854 58 326 3.0 16.0 0.00 0.00 0.00 31 1004.6
20260509220418 57 326 5.0 17.0 0.00 0.00 0.00 32 1004.6
20260509215823 57 302 7.0 17.0 0.00 0.00 0.00 31 1004.7
20260509215344 57 351 6.0 15.0 0.00 0.00 0.00 30 1004.6
20260509214841 58 9 8.0 16.0 0.00 0.00 0.00 30 1004.4